Weather History for Lancaster, OH

Change the Weather History Date:

Friday, September 14, 2012

  Actual Average Record
Temperature  
Mean Temperature 63 °F -  
Max Temperature 81 °F 79 °F 102 °F (1939)
Min Temperature 48 °F 54 °F 35 °F (1975)
Degree Days  
Heating Degree Days 2    
Growing Degree Days 13 (Base 50)    
Moisture  
Dew Point 55 °F    
Average Humidity 81    
Maximum Humidity 96    
Minimum Humidity 52    
Precipitation  
Precipitation 0.00 in - - ()
Sea Level Pressure  
Sea Level Pressure 30.24 in    
Wind  
Wind Speed 3 mph (NW)    
Max Wind Speed 16 mph    
Max Gust Speed 26 mph    
Visibility 8 miles    
Events      
Averages and records for this station are not official NWS values.
T = Trace of Precipitation, MM = Missing Value Source: NWS Daily Summary

Daily Weather History Graph

Daily Weather History Graph

Search for Another Location

Airport:

Trip Planner

Search our weather history database for the weather conditions in past years. The results will help you decide how hot, cold, wet, or windy it might be!

Date:

Astronomy

Sep. 14, 2012 Rise Set
Actual Time 7:11 AM EDT 7:40 PM EDT
Civil Twilight 6:44 AM EDT 8:07 PM EDT
Nautical Twilight 6:12 AM EDT 8:38 PM EDT
Astronomical Twilight 5:39 AM EDT 9:11 PM EDT
Moon 5:34 AM EDT (9/14) 6:36 PM EDT (9/14)
Length of Visible Light 13h 23m
Length of Day
12h 28m
Waning Crescent, 3% of the Moon is Illuminated
Sep 14
Waning Crescent
Sep 15
New
Sep 22
First Quarter
Sep 29
Full
Oct 8
Last Quarter

Hourly Weather History & Observations

Time (EDT) Temp. Dew Point Humidity Pressure Visibility Wind Dir Wind Speed Gust Speed Precip Events Conditions
12:53 AM 60.1 °F 57.0 °F 90% 30.24 in 8.0 mi Calm Calm - N/A   Clear
1:53 AM 57.9 °F 55.9 °F 93% 30.23 in 8.0 mi Calm Calm - N/A   Clear
2:53 AM 57.9 °F 55.9 °F 93% 30.22 in 5.0 mi Calm Calm - N/A   Clear
3:53 AM 57.0 °F 55.9 °F 96% 30.21 in 4.0 mi Calm Calm - N/A   Clear
4:53 AM 57.0 °F 55.0 °F 93% 30.20 in 5.0 mi Calm Calm - N/A   Clear
5:53 AM 55.0 °F 54.0 °F 96% 30.20 in 4.0 mi Calm Calm - N/A   Clear
5:58 AM 55.4 °F 53.6 °F 94% 30.22 in 1.8 mi Calm Calm - N/A   Clear
6:08 AM 55.4 °F 53.6 °F 94% 30.22 in 2.5 mi Calm Calm - N/A   Clear
6:15 AM 55.4 °F 53.6 °F 94% 30.22 in 4.0 mi Calm Calm - N/A   Clear
6:53 AM 55.9 °F 54.0 °F 93% 30.21 in 4.0 mi Calm Calm - N/A   Clear
7:53 AM 57.9 °F 55.9 °F 93% 30.22 in 3.0 mi Calm Calm - N/A   Clear
8:53 AM 64.9 °F 60.1 °F 84% 30.22 in 7.0 mi Calm Calm - N/A   Clear
9:53 AM 71.1 °F 60.1 °F 68% 30.22 in 10.0 mi Calm Calm - N/A   Clear
10:53 AM 75.9 °F 60.1 °F 58% 30.21 in 10.0 mi West 5.8 mph - N/A   Clear
11:53 AM 78.1 °F 59.0 °F 52% 30.21 in 10.0 mi WSW 9.2 mph - N/A   Clear
12:53 PM 77.0 °F 57.9 °F 52% 30.19 in 10.0 mi West 8.1 mph - N/A   Scattered Clouds
1:53 PM 75.0 °F 61.0 °F 62% 30.20 in 8.0 mi NW 16.1 mph 26.5 mph N/A   Overcast
2:53 PM 70.0 °F 60.1 °F 71% 30.22 in 8.0 mi NW 13.8 mph 23.0 mph N/A   Scattered Clouds
3:29 PM 64.4 °F 57.2 °F 77% 30.23 in 10.0 mi NNW 9.2 mph 19.6 mph N/A   Mostly Cloudy
3:53 PM 64.9 °F 57.0 °F 75% 30.24 in 10.0 mi North 8.1 mph 18.4 mph N/A   Overcast
4:17 PM 64.4 °F 55.4 °F 73% 30.24 in 10.0 mi NNW 9.2 mph 18.4 mph N/A   Overcast
4:43 PM 64.4 °F 55.4 °F 73% 30.24 in 10.0 mi NNW 9.2 mph - N/A   Mostly Cloudy
4:53 PM 64.0 °F 55.0 °F 73% 30.23 in 10.0 mi NNW 6.9 mph - N/A   Mostly Cloudy
5:31 PM 62.6 °F 55.4 °F 77% 30.25 in 10.0 mi NNW 9.2 mph - N/A   Overcast
5:53 PM 62.1 °F 54.0 °F 75% 30.26 in 10.0 mi NNW 9.2 mph - N/A   Overcast
6:13 PM 60.8 °F 53.6 °F 77% 30.27 in 10.0 mi NNW 10.4 mph - N/A   Overcast
6:53 PM 60.1 °F 54.0 °F 80% 30.27 in 10.0 mi North 6.9 mph - N/A   Overcast
7:53 PM 59.0 °F 53.1 °F 81% 30.27 in 10.0 mi NNW 6.9 mph - N/A   Overcast
8:53 PM 57.9 °F 50.0 °F 75% 30.30 in 10.0 mi North 3.5 mph - N/A   Mostly Cloudy
9:53 PM 54.0 °F 48.9 °F 83% 30.30 in 10.0 mi Calm Calm - N/A   Clear
10:53 PM 48.9 °F 46.9 °F 93% 30.30 in 10.0 mi Calm Calm - N/A   Clear
11:53 PM 48.0 °F 46.0 °F 93% 30.30 in 10.0 mi Calm Calm - N/A   Clear